Terminal Aerodrome Forecast
Issued by NWS

Home | Current Version | Previous Version | Graphics & Text | Print | Product List | Glossary On
Versions: 1 2 3 4 5 6 7 8 9 10 11 12 13 14
000
FTUS43 KBIS 311720
TAFJMS
TAF
KJMS 311720Z 3118/0118 14009KT P6SM OVC080
     FM010200 15009KT P6SM BKN090
     FM010400 16015G22KT P6SM SCT015 BKN050=

USA.gov is the U.S. government's official web portal to all federal, state and local government web resources and services.